Showing default

HULIANWANG DIGUI-03, 62325

Orbit data source: Space-Track

HULIANWANG DIGUI-03, 62325 is a payload satellite owned by Zhongguo Xingwang (CN) in LEO that was launched on Mon, 16 Dec 2024 UTC via a CHANG ZHENG 5B/YZ-2 launch vehicle from the Wenchang Satellite Launch Center (WSC). Payload-class satellites include a variety of spacecraft equipped with specific instruments for various scientific and technological missions. These include communications satellites like Starlink; space stations such as the ISS; scientific satellites like the Hubble; Earth observation satellites from companies like Planet Labs, Umbra, and HawkEye 360; GPS; miniature CubeSats for education and research; and military/defense satellites.

Loading next visibility...
Identifier
62325, 2024-240C
Orbit
LEO
Country
Flag of CNCN / PRC
Related business
Manufacturer
CAST?
Mission
Operational Civil Communications
Bus & Motor
GUOWANG C, Unknown motor
Mass
~800 kg wet, ~800 kg dry
Launch date (UTC)
2024-12-16 (11 months ago)
Launch vehicle
CHANG ZHENG 5B/YZ-2
Launch site
Wenchang Satellite Launch Center (WSC)
Object type
Payload
Rocket body
Debris
Shape & HBR
Box + 2 Pan, 5.0 m
Radar Cross Section
5.935 m², Large (>1 m²)

Expand to show TLE details & history
Last TLE update: 2 days ago

TLE from 2 days ago
0 HULIANWANG DIGUI-03
1 62325U 24240C   25312.84369543  .00000089  00000-0  17403-3 0  9990
2 62325  86.4974  57.5075 0001835  98.7804 261.3538 13.24417148 43471
Epoch: 2025-11-08T20:14Z
TLE epoch observation values (Epoch: 2025-11-08T20:14:55.285Z)
Latitude
0.00001°
Longitude
65.50966°
Altitude
1,170.998 km
Speed
7.268 km/s
True Right ascension
03h 50m 01s
True Declination
0° 00' 00"
Sunlit
Object was in full shadow at epoch
Visualization orbit readout
Latitude
Unknown
Longitude
Unknown
Altitude
Unknown
Speed
Unknown
Apparent Right ascension
Unknown
Apparent Declination
Unknown
Sunlit
N/A
Visualization observer readout
Local Sidereal Time
04:41:34
Azimuth
Unknown
Elevation
Unknown
Doppler factor
Unknown
Orbital elements
Apogee altitude
1,166.399 km
Perigee altitude
1,163.631 km
Semi-major axis
7,543.152 km
Eccentricity
0.00018
Inclination
86.4974°
RAAN
57.5075°
Arg. of periapsis
98.7804°
True anomaly
261.33301°
Mean anomaly
261.3538°
Eccentric anomaly
261.34341°
Mean motion
3.31294 °/min
Orbital period
108.66 mins
BSTAR
0.00017403
Loading maneuver chart data...
Computing Atmospheric mass density...
Loading historical data...
Loading historical data...
Loading historical data...
Loading historical data...
Loading historical data...
Loading historical data...
Loading historical data...

Documentation

Showing up to 5 results
|